Location: Caoba
(9.7667°N, 67.4833°W)
Time: 20:06:14
(UTC+00:00)

GOES 2 Rocket - Pass Details

Date: 08 December 2024
Orbit: 569 x 1662 km, 28.4° (Epoch: 14 January)

Event Time Altitude Azimuth Distance (km) Brightness Sun altitude
Rises 01:36:40 0° 240° (WSW) 4,427 8.1 -48.5°
Reaches altitude 10° 01:40:00 10° 240° (WSW) 3,290 7.2 -49.2°
Enters shadow 01:42:39 22° 239° (WSW) 2,392 6.3 -49.8°
